This is the latest recevied weather packets stored in our database for station/object IZ1UQG-N2. If no packets are shown the sender has not sent any weather packets the latest 1 day(s).
| Time | Temp. | Humidity | Pressure | Rain* | Wind** | Luminosity | Snow |
|---|---|---|---|---|---|---|---|
| 1777990131 | 11.67° C | 89% | 1011.8 hPa | 0.25 mm | 0.45 m/s, 358° | 62 W/m² | - |
| 1777990071 | 11.67° C | 90% | 1011.8 hPa | 0.25 mm | 0.45 m/s, 356° | 63 W/m² | - |
| 1777990011 | 11.67° C | 90% | 1011.8 hPa | 0.25 mm | 0.45 m/s, 356° | 65 W/m² | - |
| 1777989968 | 11.67° C | 90% | 1011.8 hPa | 0.25 mm | 0.45 m/s, 356° | 65 W/m² | - |
| 1777989950 | 11.67° C | 90% | 1011.8 hPa | 0.25 mm | 0.45 m/s, 356° | 67 W/m² | - |
| 1777989889 | 11.67° C | 90% | 1011.7 hPa | 0.25 mm | 0.45 m/s, 355° | 70 W/m² | - |
| 1777989830 | 11.67° C | 90% | 1011.7 hPa | 0.25 mm | 0.45 m/s, 352° | 72 W/m² | - |
| 1777989787 | 11.67° C | 90% | 1011.7 hPa | 0.25 mm | 0.45 m/s, 352° | 72 W/m² | - |
| 1777989769 | 11.67° C | 90% | 1011.7 hPa | 0.25 mm | 0.45 m/s, 350° | 74 W/m² | - |
| 1777989709 | 11.67° C | 90% | 1011.8 hPa | 0.25 mm | 0.45 m/s, 353° | 77 W/m² | - |
| 1777989649 | 11.67° C | 90% | 1011.8 hPa | 0.25 mm | 0.45 m/s, 353° | 77 W/m² | - |
| 1777989609 | 11.67° C | 90% | 1011.8 hPa | 0.25 mm | 0.45 m/s, 353° | 77 W/m² | - |
| 1777989591 | 11.67° C | 90% | 1011.7 hPa | 0.25 mm | 0.45 m/s, 354° | 77 W/m² | - |
| 1777989529 | 11.67° C | 90% | 1011.7 hPa | 0.25 mm | 0.89 m/s, 353° | 79 W/m² | - |
| 1777989470 | 11.67° C | 89% | 1011.7 hPa | 0.25 mm | 0.89 m/s, 355° | 77 W/m² | - |
| 1777989428 | 11.67° C | 89% | 1011.7 hPa | 0.25 mm | 0.89 m/s, 355° | 77 W/m² | - |
| 1777989410 | 11.67° C | 89% | 1011.7 hPa | 0.25 mm | 0.89 m/s, 354° | 77 W/m² | - |
| 1777989350 | 11.67° C | 89% | 1011.8 hPa | 0 mm | 0.89 m/s, 353° | 72 W/m² | - |
| 1777989290 | 11.67° C | 90% | 1011.8 hPa | 0 mm | 0.89 m/s, 351° | 70 W/m² | - |
| 1777989247 | 11.67° C | 90% | 1011.8 hPa | 0 mm | 0.89 m/s, 351° | 70 W/m² | - |
| 1777989229 | 11.67° C | 90% | 1011.8 hPa | 0 mm | 0.45 m/s, 356° | 69 W/m² | - |
| 1777989169 | 11.67° C | 90% | 1011.7 hPa | 0 mm | 0.89 m/s, 2° | 69 W/m² | - |
| 1777989109 | 11.67° C | 90% | 1011.9 hPa | 0 mm | 0.89 m/s, 1° | 67 W/m² | - |
| 1777989069 | 11.67° C | 90% | 1011.9 hPa | 0 mm | 0.89 m/s, 1° | 67 W/m² | - |
| 1777989051 | 11.67° C | 89% | 1011.9 hPa | 0 mm | 0.89 m/s, 2° | 67 W/m² | - |
* Rain latest hour (hover to see other rain measurements)
** Current wind speed in m/s (hover to see current wind gust speed)